This demonstration page uses our WeatherBlox Daily Observations layout. Learn more.

Left ArrowRight Arrow

38.80484, -77.04692

Hourly Observations for December 20, 2018

Temp ( °F °C ) Dew Point ( °F °C ) Humidity (%) Winds ( mph kmh ) Pressure ( in mb ) Visibility ( mi km ) Precip ( " mm )
12:52 am 00:52 Mostly Clear 40 4.4 31 -0.6 70 70 Calm 30.09 1019 10 16 0.00 0.00
1:52 am 01:52 Clear 38 3.3 31 -0.6 76 76 Calm 30.09 1019 10 16 0.00 0.00
2:52 am 02:52 Clear 38 3.3 31 -0.6 76 76 Calm 30.09 1019 10 16 0.00 0.00
3:52 am 03:52 Clear 37 2.8 31 -0.6 79 79 ENE 3 6 30.08 1019 10 16 0.00 0.00
4:52 am 04:52 Mostly Clear 36 2.2 31 -0.6 82 82 ENE 7 11 30.08 1019 10 16 0.00 0.00
5:19 am 05:19 Mostly Cloudy 37 2.8 32 0 82 82 ESE 3 6 30.09 1019 10 16 0.00 0.00
5:52 am 05:52 Cloudy 38 3.3 32 0 79 79 NE 3 6 30.07 1018 10 16 0.00 0.00
6:52 am 06:52 Cloudy 40 4.4 33 0.6 77 77 Calm 30.08 1019 10 16 0.00 0.00
7:52 am 07:52 Cloudy 40 4.4 33 0.6 77 77 NE 7 11 30.06 1018 10 16 0.00 0.00
8:52 am 08:52 Cloudy 42 5.6 34 1.1 73 73 ENE 3 6 30.07 1018 10 16 0.00 0.00
9:10 am 09:10 Cloudy 42 5.6 34 1.1 73 73 NE 6 9 30.06 1018 10 16 0.00 0.00
9:52 am 09:52 Cloudy 42 5.6 35 1.7 76 76 NE 8 13 30.06 1018 10 16 0.00 0.00
10:52 am 10:52 Cloudy 44 6.7 37 2.8 76 76 ENE 6 9 30.05 1018 10 16 0.00 0.00
11:11 am 11:11 Cloudy with Drizzle 43 6.1 37 2.8 80 80 ENE 8 13 30.03 1017 3 4 0.00 0.03
11:21 am 11:21 Cloudy with Drizzle 42 5.6 38 3.3 85 85 ENE 8 13 30.03 1017 2 3 0.00 0.03
11:32 am 11:32 Cloudy with Drizzle 42 5.6 39 3.9 89 89 NE 6 9 30.03 1017 2 2 0.00 0.03
11:52 am 11:52 Cloudy with Drizzle 42 5.6 39 3.9 89 89 NNE 5 7 30.02 1017 2 2 0.00 0.03
12:01 pm 12:01 Cloudy with Drizzle 42 5.6 39 3.9 89 89 N 5 7 30.00 1016 2 3 0.00 0.03
12:35 pm 12:35 Cloudy with Drizzle 42 5.6 39 3.9 89 89 NNE 6 9 30.00 1016 1 2 0.00 0.03
12:47 pm 12:47 Cloudy with Drizzle 43 6 39 4 87 87 NE 8 13 29.97 1015 1 1 0.00 0.03
12:52 pm 12:52 Cloudy with Drizzle 42 5.6 39 3.9 89 89 NNE 7 11 29.98 1015 1 1 0.00 0.03
1:05 pm 13:05 Cloudy with Drizzle 42 5.6 39 3.9 89 89 NNE 7 11 29.97 1015 1 2 0.00 0.03
1:52 pm 13:52 Cloudy with Drizzle 42 5.6 39 3.9 89 89 NNE 8 13 29.95 1014 2 2 0.00 0.03
2:52 pm 14:52 Cloudy with Light Rain 42 5.6 39 3.9 89 89 NNE 12 19 29.92 1013 2 3 0.00 0.03
3:15 pm 15:15 Cloudy with Light Rain 42 5.6 39 3.9 89 89 NE 10 17 29.91 1013 3 4 0.01 0.25
3:23 pm 15:23 Cloudy with Light Rain 42 5.6 39 3.9 89 89 NE 9 15 29.91 1013 4 6 0.02 0.51
3:52 pm 15:52 Cloudy with Rain 42 5.6 39 3.9 89 89 NE 9 15 29.89 1012 4 6 0.04 1.02
4:52 pm 16:52 Cloudy with Light Rain 42 5.6 39 3.9 89 89 NE 14 22 29.86 1011 8 13 0.05 1.27
5:52 pm 17:52 Cloudy with Light Rain 42 5.6 39 3.9 89 89 NE 10 17 29.82 1010 5 8 0.04 1.02
6:52 pm 18:52 Cloudy with Light Rain 43 6.1 40 4.4 89 89 NE 10 17 29.77 1008 7 11 0.07 1.78
7:52 pm 19:52 Cloudy with Light Rain 44 6.7 41 5 89 89 NE 8 13 29.72 1006 9 14 0.05 1.27
8:21 pm 20:21 Cloudy with Light Rain 45 7.2 42 5.6 90 90 NE 8 13 29.68 1005 7 11 0.00 0.03
8:52 pm 20:52 Cloudy with Light Rain 46 7.8 43 6.1 89 89 NE 7 11 29.66 1004 6 10 0.03 0.76
9:31 pm 21:31 Cloudy with Light Rain 52 11.1 49 9.4 89 89 E 5 7 29.62 1003 10 16 0.01 0.25
9:52 pm 21:52 Cloudy with Light Rain 50 10 48 8.9 93 93 N 6 9 29.60 1002 10 16 0.02 0.51
10:22 pm 22:22 Cloudy with Light Rain 59 15 56 13.3 90 90 ESE 15 24 29.56 1001 10 16 0.03 0.76
10:52 pm 22:52 Cloudy with Light Rain 60 15.6 57 13.9 90 90 SE 15 24 29.52 1000 10 16 0.03 0.76
11:23 pm 23:23 Cloudy with Light Rain 62 16.7 58 14.4 86 86 SE 22 35 29.50 999 8 13 0.02 0.51
11:52 pm 23:52 Cloudy with Light Rain 62 16.7 58 14.4 86 86 SSE 20 31 29.47 998 10 16 0.03 0.76

Powered by AerisWeather